TimeMST,TemperatureF,Dew PointF,Humidity,Sea Level PressureIn,VisibilityMPH,Wind Direction,Wind SpeedMPH,Gust SpeedMPH,PrecipitationIn,Events,Conditions,WindDirDegrees,DateUTC
12:53 AM,26.1,14.0,60,29.95,10.0,Calm,Calm,-,N/A,,Clear,0,2014-02-21 07:53:00
1:53 AM,26.1,15.1,63,29.92,10.0,SW,4.6,-,N/A,,Clear,220,2014-02-21 08:53:00
2:53 AM,25.0,14.0,63,29.91,10.0,WNW,5.8,-,N/A,,Clear,300,2014-02-21 09:53:00
3:53 AM,24.1,16.0,71,29.91,10.0,West,5.8,-,N/A,,Clear,280,2014-02-21 10:53:00
4:53 AM,26.1,16.0,66,29.92,10.0,SW,4.6,-,N/A,,Clear,220,2014-02-21 11:53:00
5:53 AM,23.0,15.1,72,29.95,10.0,Variable,3.5,-,N/A,,Clear,0,2014-02-21 12:53:00
6:53 AM,27.0,15.1,61,29.98,10.0,WSW,3.5,-,N/A,,Clear,240,2014-02-21 13:53:00
7:53 AM,32.0,19.0,59,29.98,10.0,SW,5.8,-,N/A,,Clear,220,2014-02-21 14:53:00
8:53 AM,39.9,15.1,36,29.97,10.0,West,9.2,-,N/A,,Clear,270,2014-02-21 15:53:00
9:53 AM,46.9,15.1,28,29.95,10.0,West,10.4,-,N/A,,Clear,280,2014-02-21 16:53:00
10:53 AM,51.1,10.9,20,29.94,10.0,WNW,8.1,-,N/A,,Clear,300,2014-02-21 17:53:00
11:53 AM,52.0,8.1,17,29.91,10.0,West,3.5,-,N/A,,Clear,280,2014-02-21 18:53:00
12:53 PM,54.0,6.1,15,29.87,10.0,WSW,5.8,-,N/A,,Clear,250,2014-02-21 19:53:00
1:53 PM,55.9,6.1,14,29.85,10.0,SW,9.2,20.7,N/A,,Clear,230,2014-02-21 20:53:00
2:53 PM,55.9,6.1,14,29.82,10.0,North,-9999.0,-,N/A,,Clear,0,2014-02-21 21:53:00
3:53 PM,55.9,9.0,15,29.81,10.0,South,9.2,-,N/A,,Clear,170,2014-02-21 22:53:00
4:53 PM,53.1,15.1,22,29.81,10.0,SSE,5.8,-,N/A,,Clear,150,2014-02-21 23:53:00
5:53 PM,43.0,21.0,42,29.85,10.0,SE,10.4,-,N/A,,Clear,130,2014-02-22 00:53:00
7:53 PM,37.0,21.0,52,29.85,10.0,Calm,Calm,-,N/A,,Clear,0,2014-02-22 02:53:00
8:53 PM,35.1,19.9,54,29.83,10.0,West,6.9,-,N/A,,Clear,270,2014-02-22 03:53:00
9:53 PM,30.0,19.0,64,29.84,10.0,NW,4.6,-,N/A,,Clear,320,2014-02-22 04:53:00
10:53 PM,26.1,18.0,71,29.84,10.0,SW,4.6,-,N/A,,Clear,230,2014-02-22 05:53:00
11:53 PM,30.9,18.0,59,29.84,10.0,SW,6.9,-,N/A,,Clear,220,2014-02-22 06:53:00